Location: Castifao
(42.5040°N, 9.1124°E)
Time: 01:14:56
(UTC+00:00)

N. Korean satellite - Visible Passes

Search period start: 29 March 2020 00:00
Search period end: 08 April 2020 00:00
Orbit: 455 x 506 km, 97.2° (Epoch: 28 March)

Date Brightness Start Highest point End Pass type
(mag) Time Alt. Az. Time Alt. Az. Time Alt. Az.
30 Mar 9.1 04:32:12 10° NE 04:35:07 25° E 04:37:59 10° SSE visible
31 Mar 9.9 04:07:52 10° ENE 04:09:20 12° E 04:10:47 10° ESE visible
03 Apr 9.5 04:23:26 10° NE 04:26:00 19° E 04:28:32 10° SE visible
07 Apr 9.7 04:14:45 10° NE 04:16:51 15° E 04:18:55 10° SE visible
